This is the latest recevied weather packets stored in our database for station/object KC3AWA. If no packets are shown the sender has not sent any weather packets the latest 10 day(s).
| Time | Temp. | Humidity | Pressure | Rain* | Wind** | Luminosity | Snow |
|---|---|---|---|---|---|---|---|
| 1778095933 | 12.22° C | 62% | 1011.7 hPa | 0 mm | - | 308 W/m² | - |
| 1778095630 | 11.67° C | 64% | 1011.7 hPa | 0 mm | - | 433 W/m² | - |
| 1778095326 | 11.11° C | 67% | 1011.8 hPa | 0 mm | - | 314 W/m² | - |
| 1778095023 | 10.56° C | 67% | 1011.8 hPa | 0 mm | - | 152 W/m² | - |
| 1778094719 | 10.56° C | 67% | 1011.7 hPa | 0 mm | - | 105 W/m² | - |
| 1778094417 | 11.11° C | 68% | 1011.8 hPa | 0 mm | - | 89 W/m² | - |
| 1778094113 | 11.11° C | 68% | 1011.8 hPa | 0 mm | - | 226 W/m² | - |
| 1778093810 | 10.56° C | 70% | 1011.6 hPa | 0 mm | - | 268 W/m² | - |
| 1778093506 | 11.11° C | 68% | 1011.5 hPa | 0 mm | - | 147 W/m² | - |
| 1778093205 | 11.11° C | 68% | 1011.6 hPa | 0 mm | - | 116 W/m² | - |
| 1778092901 | 11.67° C | 69% | 1011.4 hPa | 0 mm | - | 122 W/m² | - |
| 1778092598 | 12.22° C | 65% | 1011.4 hPa | 0 mm | - | 152 W/m² | - |
| 1778092294 | 12.22° C | 65% | 1011.3 hPa | 0 mm | - | 301 W/m² | - |
| 1778091992 | 12.78° C | 64% | 1011.4 hPa | 0 mm | - | 281 W/m² | - |
| 1778091688 | 12.78° C | 64% | 1011.6 hPa | 0 mm | - | 656 W/m² | - |
| 1778091386 | 12.22° C | 67% | 1011.7 hPa | 0 mm | - | 812 W/m² | - |
| 1778091083 | 12.78° C | 66% | 1011.6 hPa | 0 mm | - | 753 W/m² | - |
| 1778090780 | 12.78° C | 68% | 1011.5 hPa | 0 mm | - | 381 W/m² | - |
| 1778090476 | 12.22° C | 73% | 1011.4 hPa | 0 mm | - | 734 W/m² | - |
| 1778090173 | 11.11° C | 74% | 1011.3 hPa | 0 mm | - | 600 W/m² | - |
| 1778089869 | 11.11° C | 77% | 1011.5 hPa | 0 mm | - | 315 W/m² | - |
| 1778089568 | 10.56° C | 77% | 1011.5 hPa | 0 mm | - | 257 W/m² | - |
| 1778089264 | 11.11° C | 77% | 1011.5 hPa | 0 mm | - | 84 W/m² | - |
| 1778088962 | 11.11° C | 79% | 1011.3 hPa | 0 mm | - | 282 W/m² | - |
| 1778088658 | 10.56° C | 80% | 1011.3 hPa | 0 mm | - | 1002 W/m² | - |
* Rain latest hour (hover to see other rain measurements)
** Current wind speed in m/s (hover to see current wind gust speed)